EA4BCR Weather Reports


time (UTC)temp
C
wind
direction
speed
KPH
gust
KPH
rain 1hr
cm
rain 24hr
cm
rain mn
cm
humidity
%
barometer
mb
20260504035052 15 0.0 0.0 0.00 0.00 0.00 10 1011.5
20260504034052 15 0.0 0.0 0.00 0.00 0.00 10 1011.8
20260504033052 15 0.0 0.0 0.00 0.00 0.00 10 1011.8
20260504032052 15 0.0 0.0 0.00 0.00 0.00 10 1011.7
20260504031052 15 0.0 0.0 0.00 0.00 0.00 10 1011.7
20260504030052 15 0.0 0.0 0.00 0.00 0.00 10 1011.8
20260504025052 15 0.0 0.0 0.00 0.00 0.00 10 1011.7
20260504024052 15 0.0 0.0 0.00 0.00 0.00 10 1012.0
20260504023052 15 0.0 0.0 0.00 0.00 0.00 10 1012.1
20260504022052 15 0.0 0.0 0.00 0.00 0.00 10 1012.1
20260504021052 15 0.0 0.0 0.00 0.00 0.00 10 1012.1
20260504020052 15 0.0 0.0 0.00 0.00 0.00 10 1011.9
20260504015052 15 0.0 0.0 0.00 0.00 0.00 10 1012.2
20260504014052 15 0.0 0.0 0.00 0.00 0.00 10 1012.4
20260504013052 15 0.0 0.0 0.00 0.00 0.00 10 1012.3
20260504012052 14 0.0 0.0 0.00 0.00 0.00 10 1012.5
20260504011052 14 0.0 0.0 0.00 0.00 0.00 10 1012.8
20260504010052 14 0.0 0.0 0.00 0.00 0.00 10 1012.6
20260504005052 13 0.0 0.0 0.00 0.00 0.00 10 1013.0
20260504004052 13 0.0 0.0 0.00 0.00 0.00 10 1012.8
20260504003052 14 0.0 0.0 0.00 0.00 0.00 10 1012.9
20260504002052 13 0.0 0.0 0.00 0.00 0.00 10 1012.9
20260504001052 14 0.0 0.0 0.00 0.00 0.00 10 1012.8
20260504000052 14 0.0 0.0 0.00 0.00 0.00 10 1012.9
20260503235052 14 0.0 0.0 0.00 0.00 0.00 10 1013.2
20260503234052 14 0.0 0.0 0.00 0.00 0.00 10 1013.3
20260503233052 13 0.0 0.0 0.00 0.00 0.00 10 1013.4
20260503232052 15 0.0 0.0 0.00 0.00 0.00 10 1012.9
20260503231052 15 0.0 0.0 0.00 0.00 0.00 10 1012.8
20260503230052 15 0.0 0.0 0.00 0.00 0.00 10 1012.9
20260503225052 15 0.0 0.0 0.00 0.00 0.00 10 1013.0
20260503224052 15 0.0 0.0 0.00 0.00 0.00 10 1013.1
20260503223052 15 0.0 0.0 0.00 0.00 0.00 10 1013.1
20260503222053 15 0.0 0.0 0.00 0.00 0.00 10 1013.2
20260503221052 15 0.0 0.0 0.00 0.00 0.00 10 1013.2
20260503220052 16 0.0 0.0 0.00 0.00 0.00 10 1012.7
20260503215052 15 0.0 0.0 0.00 0.00 0.00 10 1012.7
20260503214052 16 0.0 0.0 0.00 0.00 0.00 10 1012.6
20260503213052 15 0.0 0.0 0.00 0.00 0.00 10 1012.8
20260503212052 15 0.0 0.0 0.00 0.00 0.00 10 1012.9
20260503211052 15 0.0 0.0 0.00 0.00 0.00 10 1012.8
20260503210052 15 0.0 0.0 0.00 0.00 0.00 98 1012.6
20260503205052 16 0.0 0.0 0.00 0.00 0.00 10 1012.5
20260503204052 15 0.0 0.0 0.00 0.00 0.00 10 1012.6
20260503203052 15 0.0 0.0 0.00 0.00 0.00 10 1012.7
20260503202052 15 0.0 0.0 0.00 0.00 0.00 10 1012.4
20260503200654 15 0.0 0.0 0.00 0.00 0.00 10 1012.4
20260503195654 17 0.0 0.0 0.00 0.00 0.00 88 1011.0
20260503194655 17 0.0 0.0 0.00 0.00 0.00 89 1010.7
20260503193654 17 0.0 0.0 0.00 0.00 0.00 92 1010.8
20260503192654 17 0.0 0.0 0.00 0.00 0.00 81 1010.5
20260503191654 18 0.0 0.0 0.00 0.00 0.00 78 1010.3
20260503190654 18 0.0 0.0 0.00 0.00 0.00 73 1010.1
20260503185656 18 0.0 0.0 0.00 0.00 0.00 76 1010.0
20260503184654 18 0.0 0.0 0.00 0.00 0.00 73 1009.6
20260503183654 18 0.0 0.0 0.00 0.00 0.00 67 1009.5
20260503182654 19 0.0 0.0 0.00 0.00 0.00 65 1009.4
20260503181654 19 0.0 0.0 0.00 0.00 0.00 66 1009.3
20260503180654 18 0.0 0.0 0.00 0.00 0.00 60 1009.4
20260503175654 18 0.0 0.0 0.00 0.00 0.00 55 1009.3
20260503174654 19 0.0 0.0 0.00 0.00 0.00 51 1009.3
20260503173654 20 0.0 0.0 0.00 0.00 0.00 52 1008.9
20260503172654 20 0.0 0.0 0.00 0.00 0.00 50 1009.0
20260503171655 20 0.0 0.0 0.00 0.00 0.00 50 1008.7
20260503170654 20 0.0 0.0 0.00 0.00 0.00 49 1008.5
20260503150655 20 0.0 0.0 0.00 0.00 0.00 92 1009.0
20260503130654 17 0.0 0.0 0.00 0.00 0.00 10 1011.4
20260503110654 16 0.0 0.0 0.00 0.00 0.00 10 1013.0
20260503080654 16 0.0 0.0 0.00 0.00 0.00 10 1013.7
20260503072654 15 0.0 0.0 0.00 0.00 0.00 10 1014.0
20260503071654 16 0.0 0.0 0.00 0.00 0.00 10 1013.4
20260503070654 16 0.0 0.0 0.00 0.00 0.00 10 1013.8
20260503054653 14 0.0 0.0 0.00 0.00 0.00 10 1014.3
20260503053654 15 0.0 0.0 0.00 0.00 0.00 10 1013.8
20260503052654 15 0.0 0.0 0.00 0.00 0.00 10 1013.6
20260503051653 15 0.0 0.0 0.00 0.00 0.00 10 1013.7
20260503050654 15 0.0 0.0 0.00 0.00 0.00 10 1014.1
20260503045654 15 0.0 0.0 0.00 0.00 0.00 10 1013.8
20260503044653 15 0.0 0.0 0.00 0.00 0.00 10 1013.9
20260503043653 15 0.0 0.0 0.00 0.00 0.00 10 1013.7
20260503042654 15 0.0 0.0 0.00 0.00 0.00 10 1013.8
20260503041654 15 0.0 0.0 0.00 0.00 0.00 10 1013.8
20260503040654 16 0.0 0.0 0.00 0.00 0.00 10 1013.7